Location: Newark
(33.7579°N, 132.8129°E)
Time: 01:54:49
(UTC+00:00)

Hubble Space Telescope - Pass Details

Date: 21 November 2019
Orbit: 536 x 540 km, 28.5° (Epoch: 14 December)

Event Time Altitude Azimuth Distance (km) Brightness Sun altitude
Rises 09:45:42 0° 250° (WSW) 2,668 5.8 -21.2°
Reaches altitude 10° 09:48:04 10° 242° (WSW) 1,779 4.4 -21.7°
Maximum altitude 09:51:53 37° 174° (S) 840 1.7 -22.5°
Enters shadow 09:52:03 37° 168° (SSE) 843 1.7 -22.5°
